Regional Weather Roundup
Issued by NWS

Home | Current Version | Previous Version | Text Only | Print | Product List | Glossary Off
Versions: 1 2 3 4 5 6 7 8 9 10 11 12 13 14 15 16 17 18 19 20 21 22 23 24 25 26 27 28 29 30 31 32 33 34 35 36 37 38 39 40 41 42 43 44 45 46 47 48 49 50

000
ASUS43 KMKX 220211
RWRWI

WISCONSIN REGIONAL WEATHER ROUNDUP
NATIONAL WEATHER SERVICE MILWAUKEE/SULLIVAN WI
900 PM CDT SUN SEP 21 2014

NOTE: "FAIR" INDICATES FEW OR NO CLOUDS BELOW 12,000 FEET WITH NO
SIGNIFICANT WEATHER AND/OR OBSTRUCTIONS TO VISIBILITY.

WIZ001-002-006>008-014>016-023>028-220300-
NORTHWEST WISCONSIN

CITY           SKY/WX    TMP DP  RH WIND       PRES   REMARKS
SUPERIOR ARPT  CLEAR     48  46  91 W3        30.18R
ASHLAND        CLEAR     42  41  96 CALM      30.18R
HAYWARD        CLEAR     46  44  93 CALM      30.18R
SIREN          CLEAR     50  48  92 CALM      30.20R
RICE LAKE      CLEAR     49  46  90 CALM      30.19R
LADYSMITH      CLEAR     46  44  92 CALM      30.19R
EAU CLAIRE     CLEAR     51  45  79 CALM      30.17R
MENOMONIE      CLEAR     55  47  75 W3        30.18S
NEW RICHMOND   CLEAR     51  46  82 CALM      30.20R
OSCEOLA        CLEAR     49  49  98 CALM      30.22R
$$

WIZ003>005-009-010-017-018-220300-
NORTH CENTRAL WISCONSIN

CITY           SKY/WX    TMP DP  RH WIND       PRES   REMARKS
WOODRUFF       CLEAR     42  40  93 CALM      30.15S
RHINELANDER    CLEAR     36  35  96 W3        30.16R FOG
EAGLE RIVER    CLEAR     35  35 100 CALM      30.14S
LAND O LAKES   CLEAR     36  35  98 CALM      30.15R
PHILLIPS       CLEAR     41  41 100 CALM      30.16S
TOMAHAWK       CLEAR     37  36  95 CALM      30.16S
MEDFORD        CLEAR     41  40  96 CALM      30.17R
MERRILL        CLEAR     40  38  93 CALM      30.17R
$$

WIZ029-030-035-036-043>047-220300-
CENTRAL WISCONSIN

CITY           SKY/WX    TMP DP  RH WIND       PRES   REMARKS
WAUSAU         CLEAR     47  38  71 NW5       30.16R
MOSINEE        CLEAR     46  39  76 N6        30.17R
MARSHFIELD     CLEAR     50  39  66 NE7       30.17R
STEVENS POINT  CLEAR     46  39  78 N3        30.17R
WAUPACA        CLEAR     50  41  70 NW3       30.16R
WAUTOMA        CLEAR     51  44  77 N5        30.16R
WISC RAPIDS    CLEAR     50  41  71 N8        30.18R
CAMP DOUGLAS   CLEAR     44  44  99 CALM      30.17R
$$

WIZ011>013-019>022-031-037>040-048>050-220300-
NORTHEAST WISCONSIN

CITY           SKY/WX    TMP DP  RH WIND       PRES   REMARKS
ANTIGO         CLEAR     42  38  86 NW5       30.15S
STURGEON BAY   CLEAR     46  37  71 N12       30.13S
GREEN BAY      CLEAR     47  41  80 N7        30.15R
MANITOWOC      CLEAR     47  42  83 NW3       30.14R
APPLETON       PTCLDY    48  39  71 N9        30.15R
CLINTONVILLE   CLEAR     46  41  81 N3        30.15R
OSHKOSH        CLEAR     50  41  71 N9        30.14R
$$

WIZ032>034-041-042-053>061-220300-
SOUTHWEST WISCONSIN

CITY           SKY/WX    TMP DP  RH WIND       PRES   REMARKS
LA CROSSE      CLEAR     55  46  71 N6        30.17R
SPARTA         CLEAR     46  45  95 CALM      30.18R
VIROQUA        FAIR      50  45  81 N5        30.17R
BOSCOBEL       CLEAR     51  48  89 CALM      30.16R
PRAIRIE DU CHI CLEAR     52  48  88 CALM      30.16R
PLATTEVILLE    FAIR      54  47  78 NW6       30.16R
$$

WIZ056-057-062-063-064-067-068-220300-
SOUTH CENTRAL WISCONSIN

CITY           SKY/WX    TMP DP  RH WIND       PRES   REMARKS
BARABOO/DELLS  CLEAR     53  43  69 CALM      30.16R
LONE ROCK      CLEAR     55  45  68 N6        30.16R
WATERTOWN      PTCLDY    49  45  86 CALM      30.13R
MADISON        CLEAR     52  45  77 CALM      30.14R
MIDDLETON      FAIR      52  45  75 N3        30.15R
MONROE         CLEAR     54  45  71 NW6       30.14R
JANESVILLE     CLEAR     54  45  71 CALM      30.12R
$$

WIZ051-052-058>065-066-070>072-220300-
SOUTHEAST WISCONSIN

CITY           SKY/WX    TMP DP  RH WIND       PRES   REMARKS
MILWAUKEE      PTCLDY    53  41  63 N8        30.12R
WAUKESHA       CLEAR     48  43  81 MISG      30.14
MILWAUKEE/TIMM CLEAR     50  43  76 CALM      30.13R
RACINE         CLEAR     51  43  74 NW7       30.13R
BURLINGTON     CLEAR     44  43  96 CALM      30.13R
KENOSHA        CLEAR     46  44  93 NW3       30.12R
FOND DU LAC    CLEAR     50  42  74 N8        30.14R
SHEBOYGAN      CLEAR     47  42  83 N5        30.13R
WEST BEND      CLEAR     46  41  81 CALM      30.13R
JUNEAU         PTCLDY    49  43  78 NW5       30.15R
$$

LSZ147-162-220300-
LAKE SUPERIOR

STATION/POSITION TIME  TEMP    WIND        PRES    WAVE
                       AIR SEA DIR/SP/G            HT/PER
                 (UTC) (F)     (DEG/KT/KT) (MB)    (FT/S)
W MID LAKE BUOY  0150   51 48  250/ 10/ 12 1020.5S   2/ 6
DEVILS ISLAND    0200   53     260/  9/ 10 1021.5R
PORT WING        0100   51     170/  3/  4 1021.3R
SAXON HARBOR     0100   48     200/  3/  6 1021.0S
$$

LMZ867-665-643>646-220300-
LAKE MICHIGAN

STATION/POSITION TIME  TEMP    WIND        PRES    WAVE
                       AIR SEA DIR/SP/G            HT/PER
                 (UTC) (F)     (DEG/KT/KT) (MB)    (FT/S)
N MID LAKE BUOY  0150   48 57  350/ 23/ 29 1018.8R   6/ 6
NORTHPORT PIER   0125   49     340/ 21     1019.6R
KEWAUNEE LAKESHO 0100   49     360/  6/  9 1018.6R
SHEBOYGAN LAKESH 0200   52 51  350/ 11/ 13 1020.6R
PORT WASHINGTON  0100   54     330/  3/  5 1020.0R
ATWATER BUOY     0200   55     350/ 12/ 16 1020.8R
MILWAUKEE LAKESH 0100   55     340/  7/  9   N/A
S MID LAKE BUOY  0150   55 62  350/ 19/ 23 1019.0R   7/ 8
KENOSHA   LAKESH 0200   54     320/  6/  8 1019.6R
$$

TC  - TEMPERATURE IN CELSIUS
VSB - VISIBILITY IN STATUTE MILES
WCI - WIND CHILL INDEX
HX  - HEAT INDEX



USA.gov is the U.S. government's official web portal to all federal, state and local government web resources and services.